| time (UTC) | temp F | wind direction | speed MPH | gust MPH | rain 1hr in | rain 24hr in | rain mn in | humidity % | barometer mb |
| 20260504081510 | 46 | 72 | 15.0 | 24.0 | 0.00 | 0.00 | 0.00 | 60 | 1014.2 |
| 20260504050016 | 54 | 57 | 21.0 | 31.0 | 0.00 | 0.00 | 0.00 | 40 | 1010.6 |
| 20260504044518 | 55 | 34 | 19.0 | 30.0 | 0.00 | 0.00 | 0.00 | 40 | 1010.3 |
| 20260504043013 | 57 | 63 | 17.0 | 24.0 | 0.00 | 0.00 | 0.00 | 40 | 1010.0 |
| 20260504041610 | 58 | 39 | 16.0 | 23.0 | 0.00 | 0.00 | 0.00 | 38 | 1009.5 |
| 20260504040007 | 58 | 59 | 12.0 | 18.0 | 0.00 | 0.00 | 0.00 | 37 | 1009.3 |
| 20260504034508 | 58 | 69 | 11.0 | 18.0 | 0.00 | 0.00 | 0.00 | 37 | 1009.0 |
| 20260504033004 | 58 | 49 | 11.0 | 18.0 | 0.00 | 0.00 | 0.00 | 38 | 1008.8 |
| 20260504031509 | 59 | 65 | 12.0 | 19.0 | 0.00 | 0.00 | 0.00 | 38 | 1008.3 |
| 20260504030118 | 59 | 72 | 15.0 | 21.0 | 0.00 | 0.00 | 0.00 | 38 | 1008.1 |
| 20260504024558 | 60 | 65 | 13.0 | 21.0 | 0.00 | 0.00 | 0.00 | 37 | 1007.9 |
| 20260504023058 | 62 | 62 | 11.0 | 15.0 | 0.00 | 0.00 | 0.00 | 33 | 1007.8 |
| 20260504021554 | 64 | 27 | 6.0 | 11.0 | 0.00 | 0.00 | 0.00 | 27 | 1007.9 |
| 20260504020055 | 66 | 355 | 3.0 | 11.0 | 0.00 | 0.00 | 0.00 | 26 | 1007.9 |
| 20260504014550 | 67 | 50 | 6.0 | 13.0 | 0.00 | 0.00 | 0.00 | 23 | 1008.1 |
| 20260504013052 | 69 | 343 | 9.0 | 13.0 | 0.00 | 0.00 | 0.00 | 23 | 1008.2 |
| 20260504011546 | 71 | 290 | 10.0 | 15.0 | 0.00 | 0.00 | 0.00 | 22 | 1008.1 |
| 20260504010053 | 71 | 342 | 6.0 | 16.0 | 0.00 | 0.00 | 0.00 | 22 | 1008.2 |
| 20260504004544 | 72 | 355 | 9.0 | 17.0 | 0.00 | 0.00 | 0.00 | 22 | 1008.3 |
| 20260504003038 | 72 | 338 | 8.0 | 16.0 | 0.00 | 0.00 | 0.00 | 21 | 1008.4 |
| 20260504001539 | 72 | 324 | 10.0 | 19.0 | 0.00 | 0.00 | 0.00 | 22 | 1008.6 |
| 20260504000033 | 73 | 52 | 8.0 | 16.0 | 0.00 | 0.00 | 0.00 | 22 | 1008.6 |
| 20260503234535 | 73 | 333 | 6.0 | 17.0 | 0.00 | 0.00 | 0.00 | 21 | 1008.6 |
| 20260503233028 | 73 | 333 | 10.0 | 23.0 | 0.00 | 0.00 | 0.00 | 21 | 1008.7 |
| 20260503231527 | 73 | 318 | 6.0 | 20.0 | 0.00 | 0.00 | 0.00 | 21 | 1008.8 |
| 20260503230029 | 73 | 333 | 6.0 | 20.0 | 0.00 | 0.00 | 0.00 | 20 | 1008.8 |
| 20260503224521 | 74 | 352 | 8.0 | 18.0 | 0.00 | 0.00 | 0.00 | 21 | 1009.0 |
| 20260503223019 | 73 | 345 | 11.0 | 20.0 | 0.00 | 0.00 | 0.00 | 21 | 1009.0 |
| 20260503221516 | 73 | 35 | 9.0 | 20.0 | 0.00 | 0.00 | 0.00 | 21 | 1009.2 |
| 20260503220020 | 74 | 297 | 11.0 | 19.0 | 0.00 | 0.00 | 0.00 | 21 | 1009.5 |
| 20260503214515 | 73 | 340 | 10.0 | 19.0 | 0.00 | 0.00 | 0.00 | 21 | 1009.7 |
| 20260503213002 | 72 | 285 | 8.0 | 19.0 | 0.00 | 0.00 | 0.00 | 21 | 1009.7 |
| 20260503211602 | 73 | 326 | 11.0 | 18.0 | 0.00 | 0.00 | 0.00 | 20 | 1010.1 |
| 20260503210056 | 72 | 311 | 8.0 | 17.0 | 0.00 | 0.00 | 0.00 | 22 | 1010.2 |
| 20260503204551 | 72 | 348 | 11.0 | 17.0 | 0.00 | 0.00 | 0.00 | 21 | 1010.6 |
| 20260503203048 | 71 | 333 | 12.0 | 17.0 | 0.00 | 0.00 | 0.00 | 23 | 1010.5 |
| 20260503201548 | 70 | 344 | 11.0 | 20.0 | 0.00 | 0.00 | 0.00 | 22 | 1010.8 |
| 20260503200040 | 71 | 323 | 12.0 | 20.0 | 0.00 | 0.00 | 0.00 | 23 | 1011.0 |
| 20260503194540 | 70 | 350 | 11.0 | 19.0 | 0.00 | 0.00 | 0.00 | 23 | 1011.1 |
| 20260503193031 | 70 | 323 | 10.0 | 16.0 | 0.00 | 0.00 | 0.00 | 25 | 1011.2 |
| 20260503191529 | 70 | 330 | 8.0 | 15.0 | 0.00 | 0.00 | 0.00 | 23 | 1011.3 |
| 20260503190037 | 69 | 322 | 10.0 | 16.0 | 0.00 | 0.00 | 0.00 | 24 | 1011.5 |
| 20260503184524 | 69 | 321 | 5.0 | 15.0 | 0.00 | 0.00 | 0.00 | 23 | 1011.4 |
| 20260503183021 | 69 | 309 | 10.0 | 16.0 | 0.00 | 0.00 | 0.00 | 24 | 1011.8 |
| 20260503181537 | 68 | 274 | 4.0 | 17.0 | 0.00 | 0.00 | 0.00 | 24 | 1011.9 |
| 20260503180024 | 69 | 318 | 8.0 | 15.0 | 0.00 | 0.00 | 0.00 | 26 | 1012.1 |
| 20260503174509 | 68 | 324 | 6.0 | 16.0 | 0.00 | 0.00 | 0.00 | 26 | 1012.3 |
| 20260503173006 | 68 | 1 | 10.0 | 14.0 | 0.00 | 0.00 | 0.00 | 25 | 1012.5 |
| 20260503171504 | 68 | 334 | 8.0 | 18.0 | 0.00 | 0.00 | 0.00 | 25 | 1012.5 |
| 20260503170112 | 68 | 51 | 7.0 | 18.0 | 0.00 | 0.00 | 0.00 | 26 | 1012.5 |